Regional Weather Roundup
Issued by NWS

Home | Current Version | Previous Version | Graphics & Text | Print | Product List | Glossary On
Versions: 1 2 3 4 5 6 7 8 9 10 11 12 13 14 15 16 17 18 19 20 21 22 23 24 25 26 27 28 29 30 31 32 33 34 35 36 37 38 39 40 41 42 43 44 45 46 47 48 49 50
058
ASUS43 KMKX 301200
RWRWI

WISCONSIN REGIONAL WEATHER ROUNDUP
NATIONAL WEATHER SERVICE MILWAUKEE/SULLIVAN WI
700 AM CDT TUE MAY 30 2017

NOTE: "FAIR" INDICATES FEW OR NO CLOUDS BELOW 12,000 FEET WITH NO
SIGNIFICANT WEATHER AND/OR OBSTRUCTIONS TO VISIBILITY.

WIZ001-002-006>008-014>016-023>028-301300-
NORTHWEST WISCONSIN

CITY           SKY/WX    TMP DP  RH WIND       PRES   REMARKS
SUPERIOR ARPT  NOT AVBL
ASHLAND        CLOUDY    48  45  89 W7        29.79S
6HR MIN TEMP:  47; 6HR MAX TEMP:  53;

HAYWARD        CLOUDY    48  44  86 VRB7      29.82R
6HR MIN TEMP:  48; 6HR MAX TEMP:  52; 6HR PCP: TRACE;

SIREN          CLOUDY    46  44  95 CALM      29.86R
CUMBERLAND     CLOUDY    46  43  87 W8        29.84S
RICE LAKE      CLOUDY    47  45  91 W8G17     29.85S
6HR MIN TEMP:  47; 6HR MAX TEMP:  52; 6HR PCP:  0.02;

CHETEK         DRIZZLE   49  48  95 W5        29.84R
LADYSMITH      CLOUDY    50  47  90 W7        29.83S FOG
EAU CLAIRE     CLOUDY    52  47  83 W13       29.85R
6HR MIN TEMP:  50; 6HR MAX TEMP:  52;

MENOMONIE      PTSUNNY   53  43  69 W15G23    29.86R
6HR MIN TEMP:  51; 6HR MAX TEMP:  55;

NEW RICHMOND   CLOUDY    50  41  69 W12G17    29.87R
OSCEOLA        CLOUDY    51  43  72 W10G16    29.90R
$$

WIZ003>005-009-010-017-018-301300-
NORTH CENTRAL WISCONSIN

CITY           SKY/WX    TMP DP  RH WIND       PRES   REMARKS
MANITOWISH WTR DRIZZLE   47  47 100 W8G17     29.77S
ARBOR VITAE    CLOUDY    52  48  87 W9G16     29.77R
WOODRUFF       CLOUDY    52  48  87 W9G16     29.77R
RHINELANDER    CLOUDY    50  47  89 W9        29.79S
6HR MIN TEMP:  48; 6HR MAX TEMP:  51;

EAGLE RIVER    CLOUDY    49  47  91 SW10      29.77R
LAND O LAKES   LGT RAIN  49  47  93 W5        29.77S
6HR MIN TEMP:  47; 6HR MAX TEMP:  49;

PHILLIPS       CLOUDY    47  47  99 SW5       29.80R
6HR MIN TEMP:  47; 6HR MAX TEMP:  49;

TOMAHAWK       CLOUDY    47  45  91 W3        29.81S
MEDFORD        CLOUDY    47  46  95 SW5       29.82S
MERRILL        CLOUDY    49  48  95 W8        29.82S
6HR MIN TEMP:  47; 6HR MAX TEMP:  51;

$$

WIZ029-030-035-036-043>047-301300-
CENTRAL WISCONSIN

CITY           SKY/WX    TMP DP  RH WIND       PRES   REMARKS
WAUSAU         CLOUDY    50  46  86 W12       29.82R
6HR MIN TEMP:  49; 6HR MAX TEMP:  52;

MOSINEE        PTSUNNY   48  48 100 W9        29.85R
MARSHFIELD       N/A     51  47  86 W13       29.84R
6HR MIN TEMP:  45; 6HR MAX TEMP:  51;

STEVENS POINT  CLOUDY    48  47  96 W8        29.86R
WAUPACA        MOSUNNY   55  49  81 SW9       29.86R
6HR MIN TEMP:  50; 6HR MAX TEMP:  57;

WAUTOMA        CLOUDY    53  49  86 SW9       29.88R
6HR MIN TEMP:  49; 6HR MAX TEMP:  53;

WISC RAPIDS    CLOUDY    51  48  89 W7        29.88R
6HR MIN TEMP:  48; 6HR MAX TEMP:  51;

CAMP DOUGLAS   NOT AVBL
$$

WIZ011>013-019>022-031-037>040-048>050-301300-
NORTHEAST WISCONSIN

CITY           SKY/WX    TMP DP  RH WIND       PRES   REMARKS
ANTIGO         CLOUDY    47  47  97 W13       29.82R
SHAWANO        CLOUDY    53  48  84 SW7       29.84R
6HR MIN TEMP:  51; 6HR MAX TEMP:  55;

OCONTO         CLOUDY    51  49  94 SW6       29.82R
STURGEON BAY   MOSUNNY   55  50  83 SW8       29.83R
6HR MIN TEMP:  52; 6HR MAX TEMP:  55;

GREEN BAY      CLOUDY    53  51  93 SW6       29.84R
6HR MIN TEMP:  51; 6HR MAX TEMP:  55;

MANITOWOC      NOT AVBL
APPLETON       PTSUNNY   54  50  87 W12       29.84S
CLINTONVILLE   CLOUDY    52  46  82 SW7       29.84S
OSHKOSH        PTSUNNY   54  48  80 W6        29.86R
6HR MIN TEMP:  50; 6HR MAX TEMP:  54;

$$

WIZ032>034-041-042-053>061-301300-
SOUTHWEST WISCONSIN

CITY           SKY/WX    TMP DP  RH WIND       PRES   REMARKS
LA CROSSE      CLOUDY    56  47  71 W8        29.90S
6HR MIN TEMP:  54; 6HR MAX TEMP:  57;

SPARTA         CLOUDY    50  48  94 CALM      29.90S
VIROQUA        CLOUDY    51  47  86 SW5       29.92R
6HR MIN TEMP:  48; 6HR MAX TEMP:  52;

BOSCOBEL       CLOUDY    54  49  83 SW7       29.94R
6HR MIN TEMP:  50; 6HR MAX TEMP:  54;

PRAIRIE DU CHI CLOUDY    55  45  70 W8        29.95R
PLATTEVILLE    SUNNY     53  49  88 W6        29.96S
$$

WIZ056-057-062-063-064-067-068-301300-
SOUTH CENTRAL WISCONSIN

CITY           SKY/WX    TMP DP  RH WIND       PRES   REMARKS
REEDSBURG      PTSUNNY   52  49  91 SW7       29.91R
6HR MIN TEMP:  49; 6HR MAX TEMP:  54;

BARABOO/DELLS  SUNNY     51  47  84 SW7       29.90R
LONE ROCK      NOT AVBL
MINERAL POINT  SUNNY     52  50  93 W8        29.94S
MADISON        MOSUNNY   54  48  80 VRB6      29.91R
6HR MIN TEMP:  52; 6HR MAX TEMP:  54;

MIDDLETON      SUNNY     54  49  85 W12       29.92S
WATERTOWN      CLOUDY    52  51  94 SW7       29.90R
MONROE         SUNNY     52  46  82 W14       29.94S
JANESVILLE     MOSUNNY   55  48  76 W14       29.93R
$$

WIZ051-052-058>065-066-070>072-301300-
SOUTHEAST WISCONSIN

CITY           SKY/WX    TMP DP  RH WIND       PRES   REMARKS
MILWAUKEE      MOSUNNY   56  49  77 W9        29.91R
6HR MIN TEMP:  53; 6HR MAX TEMP:  57;

WAUKESHA       SUNNY     52  46  82 SW8       29.92R
MILWAUKEE/TIMM   N/A     54  45  71 SW7       29.91R
RACINE         SUNNY     57  48  72 W7        29.93R
6HR MIN TEMP:  53; 6HR MAX TEMP:  57;

KENOSHA        SUNNY     56  49  77 W12       29.92R
6HR MIN TEMP:  48; 6HR MAX TEMP:  56;

FOND DU LAC    CLOUDY    53  47  79 SW8       29.88R
6HR MIN TEMP:  50; 6HR MAX TEMP:  53;

SHEBOYGAN      SUNNY     54  50  86 W8        29.87R
6HR MIN TEMP:  49; 6HR MAX TEMP:  54;

WEST BEND      PTSUNNY   54  50  87 W7        29.88S
JUNEAU         PTSUNNY   50  47  91 SW7       29.90S
$$

LSZ147-162-301300-
LAKE SUPERIOR

STATION/POSITION TIME  TEMP    WIND        PRES    WAVE
                       AIR SEA DIR/SP/G            HT/PER
                 (UTC) (F)     (DEG/KT/KT) (MB)    (FT/S)
DEVILS ISLAND    1100   45     250/ 15/ 17 1007.8R
SAXON HARBOR     1130   49     230/  5/ 12 1008.5R
$$

LMZ867-665-643>646-301300-
LAKE MICHIGAN

STATION/POSITION TIME  TEMP    WIND        PRES    WAVE
                       AIR SEA DIR/SP/G            HT/PER
                 (UTC) (F)     (DEG/KT/KT) (MB)    (FT/S)
CHAMBERS ISLAND  1140   53     200/  6/ 10 1008.8S
NORTHPORT PIER   1140   54     230/  6/ 10 1009.1R
SISTER BAY       1036   54     260/  8/  9   N/A
KEWAUNEE LAKESHO 1130   54     250/  5/  8 1009.9R
SHEBOYGAN LAKESH 1100   54     260/ 11/ 13 1010.9R
PORT WASHINGTON  1130   57     260/  7/ 12 1012.9R
ATWATER BUOY     1009   54     260/  8/ 10 1011.9R
MILWAUKEE LAKESH 1130   56     250/  8/ 10   N/A
KENOSHA   LAKESH 1100   56     260/  9/ 11 1013.2
$$

TC  - TEMPERATURE IN CELSIUS
VSB - VISIBILITY IN STATUTE MILES
WCI - WIND CHILL INDEX
HX  - HEAT INDEX





USA.gov is the U.S. government's official web portal to all federal, state and local government web resources and services.